Tracking 29090 objects as of 15-Jul-2024
HD Live streaming from Space Station
objects crossing your sky now

USA 48

Track USA 48 now!
USA 48 is classified as:


NORAD ID: 20355
Int'l Code: 1989-090B
Perigee: 34,430.9 km
Apogee: 36,899.8 km
Inclination: 17.4 °
Period: 1,429.5 minutes
Semi major axis: 42036 km
RCS: Unknown
Launch date: November 23, 1989
Source: United States (US)
Launch site: AIR FORCE EASTERN TEST RANGE (AFETR)
Your satellite tracking list
Your tracking list is empty




NASA's NSSDC Master Catalog

Two Line Element Set (TLE):
1 20355U 89090B   24196.70032345 -.00000248  00000-0  00000-0 0  9992
2 20355  17.3990 347.5507 0293665  98.0037  69.0650  1.00731473   681
Source of the keplerian elements: McCants